DLH245 LBWN-LBSF

Flight info

Callsign DLH245
Flight time 0h 41m
Altitude 38000
Route TOTKA DCT UMPIT
Aircraft A359/H-SDE2E3GHIJ3J4J5LM1ORWXY/LB1D1

Departure

Time 2026-04-29 19:15
Airport Varna Airport (LBWN)

Arrival

Time 2026-04-29 19:56
Airport Sofia Airport (LBSF)
Time Latitude Longitude Altitude Speed Heading
2026-04-29 18:51 43.23476 27.82976 231 ft 0 kts 335°
2026-04-29 19:05 43.23482 27.82972 232 ft 10 kts 335°
2026-04-29 19:05 43.23509 27.82958 233 ft 0 kts 342°
2026-04-29 19:06 43.23512 27.82957 233 ft 2 kts 342°
2026-04-29 19:06 43.23523 27.82953 233 ft 1 kts 345°
2026-04-29 19:06 43.23534 27.82949 231 ft 4 kts 346°
2026-04-29 19:07 43.23542 27.82946 231 ft 0 kts 347°
2026-04-29 19:09 43.23543 27.82946 228 ft 1 kts 349°
2026-04-29 19:09 43.23551 27.82958 228 ft 2 kts 54°
2026-04-29 19:09 43.23551 27.83020 231 ft 13 kts 90°
2026-04-29 19:09 43.23547 27.83117 228 ft 1 kts 92°
2026-04-29 19:10 43.23543 27.83198 231 ft 16 kts 97°
2026-04-29 19:10 43.23520 27.83313 233 ft 6 kts 137°
2026-04-29 19:10 43.23452 27.83326 230 ft 16 kts 180°
2026-04-29 19:10 43.23381 27.83352 230 ft 1 kts 126°
2026-04-29 19:11 43.23360 27.83447 229 ft 14 kts 98°
2026-04-29 19:11 43.23351 27.83584 229 ft 15 kts 96°
2026-04-29 19:11 43.23339 27.83736 232 ft 17 kts 96°
2026-04-29 19:11 43.23324 27.83918 232 ft 22 kts 98°
2026-04-29 19:12 43.23244 27.84077 230 ft 22 kts 155°
2026-04-29 19:12 43.23099 27.84025 229 ft 24 kts 231°
2026-04-29 19:12 43.23078 27.83868 232 ft 0 kts 275°
2026-04-29 19:12 43.23079 27.83852 232 ft 7 kts 276°
2026-04-29 19:13 43.23084 27.83784 231 ft 0 kts 278°
2026-04-29 19:14 43.23086 27.83768 230 ft 13 kts 278°
2026-04-29 19:14 43.23124 27.83347 232 ft 86 kts 277°
2026-04-29 19:15 43.23229 27.82146 235 ft 166 kts 277°
2026-04-29 19:15 43.23393 27.80345 636 ft 202 kts 275°
2026-04-29 19:15 43.23580 27.78378 1592 ft 212 kts 276°
2026-04-29 19:15 43.23796 27.76363 2674 ft 213 kts 275°
2026-04-29 19:16 43.23987 27.74355 3500 ft 212 kts 274°
2026-04-29 19:16 43.24154 27.72368 4230 ft 215 kts 274°
2026-04-29 19:16 43.24292 27.70301 4873 ft 222 kts 272°
2026-04-29 19:16 43.24427 27.68148 5474 ft 231 kts 274°
2026-04-29 19:17 43.24636 27.65909 6047 ft 242 kts 277°
2026-04-29 19:17 43.24848 27.63796 6419 ft 249 kts 277°
2026-04-29 19:17 43.25046 27.61520 7067 ft 258 kts 276°
2026-04-29 19:17 43.25245 27.59014 7632 ft 264 kts 274°
2026-04-29 19:18 43.25426 27.56543 8594 ft 257 kts 275°
2026-04-29 19:18 43.25544 27.54907 9235 ft 254 kts 276°
2026-04-29 19:18 43.25804 27.51765 10409 ft 250 kts 277°
2026-04-29 19:18 43.26040 27.49319 11040 ft 270 kts 277°
2026-04-29 19:19 43.26296 27.46649 11497 ft 294 kts 277°
2026-04-29 19:19 43.26558 27.43785 12131 ft 309 kts 277°
2026-04-29 19:19 43.26825 27.40768 12649 ft 328 kts 277°
2026-04-29 19:19 43.27103 27.37564 13128 ft 346 kts 277°
2026-04-29 19:20 43.27368 27.34228 13832 ft 356 kts 275°
2026-04-29 19:20 43.27275 27.30819 14632 ft 362 kts 262°
2026-04-29 19:20 43.26575 27.27465 15396 ft 370 kts 253°
2026-04-29 19:20 43.25649 27.24137 16173 ft 376 kts 252°
2026-04-29 19:21 43.24707 27.20843 16942 ft 380 kts 252°
2026-04-29 19:21 43.23725 27.17398 17747 ft 384 kts 252°
2026-04-29 19:21 43.22749 27.13956 18532 ft 388 kts 252°
2026-04-29 19:21 43.21780 27.10526 19185 ft 393 kts 252°
2026-04-29 19:22 43.20791 27.07025 19947 ft 397 kts 252°
2026-04-29 19:22 43.19788 27.03474 20756 ft 399 kts 252°
2026-04-29 19:22 43.18771 26.99910 21565 ft 403 kts 252°
2026-04-29 19:22 43.17733 26.96325 22351 ft 406 kts 252°
2026-04-29 19:23 43.16673 26.92710 23131 ft 410 kts 252°
2026-04-29 19:23 43.15595 26.89076 23863 ft 414 kts 252°
2026-04-29 19:23 43.14497 26.85398 24477 ft 419 kts 252°
2026-04-29 19:23 43.13389 26.81696 25115 ft 422 kts 252°
2026-04-29 19:24 43.12341 26.77912 25710 ft 424 kts 256°
2026-04-29 19:24 43.11581 26.74070 26026 ft 423 kts 261°
2026-04-29 19:24 43.10974 26.70063 26129 ft 425 kts 262°
2026-04-29 19:24 43.10442 26.66138 26124 ft 425 kts 263°
2026-04-29 19:25 43.09943 26.62141 26119 ft 425 kts 264°
2026-04-29 19:25 43.09466 26.58152 26108 ft 425 kts 264°
2026-04-29 19:25 43.08996 26.54155 26118 ft 425 kts 264°
2026-04-29 19:25 43.08526 26.50161 26114 ft 425 kts 264°
2026-04-29 19:26 43.08053 26.46173 26112 ft 425 kts 264°
2026-04-29 19:26 43.07575 26.42182 26110 ft 426 kts 264°
2026-04-29 19:26 43.07092 26.38193 26117 ft 425 kts 264°
2026-04-29 19:26 43.06606 26.34193 26120 ft 425 kts 264°
2026-04-29 19:27 43.06117 26.30201 26116 ft 425 kts 264°
2026-04-29 19:27 43.05628 26.26213 26113 ft 425 kts 264°
2026-04-29 19:27 43.05138 26.22231 26107 ft 426 kts 263°
2026-04-29 19:27 43.04644 26.18234 26114 ft 427 kts 263°
2026-04-29 19:28 43.04148 26.14229 26125 ft 428 kts 263°
2026-04-29 19:28 43.03649 26.10207 26123 ft 428 kts 263°
2026-04-29 19:28 43.03152 26.06213 26124 ft 428 kts 263°
2026-04-29 19:28 43.02649 26.02187 26124 ft 428 kts 263°
2026-04-29 19:29 43.02148 25.98187 26121 ft 428 kts 263°
2026-04-29 19:29 43.01645 25.94181 26124 ft 428 kts 263°
2026-04-29 19:29 43.01138 25.90154 26131 ft 428 kts 263°
2026-04-29 19:29 43.00632 25.86147 26124 ft 428 kts 263°
2026-04-29 19:30 43.00123 25.82132 26125 ft 428 kts 263°
2026-04-29 19:30 42.99620 25.78170 26130 ft 428 kts 263°
2026-04-29 19:30 42.99113 25.74184 26125 ft 429 kts 263°
2026-04-29 19:30 42.98595 25.70134 26114 ft 429 kts 263°
2026-04-29 19:31 42.98084 25.66138 26125 ft 430 kts 263°
2026-04-29 19:31 42.97564 25.62098 26127 ft 430 kts 263°
2026-04-29 19:31 42.97045 25.58067 26126 ft 431 kts 263°
2026-04-29 19:31 42.96523 25.54026 26126 ft 431 kts 263°
2026-04-29 19:32 42.95994 25.49950 26123 ft 431 kts 263°
2026-04-29 19:32 42.95463 25.45867 26123 ft 431 kts 263°
2026-04-29 19:32 42.94939 25.41842 26124 ft 431 kts 263°
2026-04-29 19:32 42.94453 25.38129 26154 ft 434 kts 262°
2026-04-29 19:33 42.93917 25.34033 26141 ft 438 kts 262°
2026-04-29 19:33 42.93380 25.29954 26133 ft 433 kts 262°
2026-04-29 19:33 42.92849 25.25934 26135 ft 431 kts 262°
2026-04-29 19:33 42.92317 25.21908 26131 ft 431 kts 262°
2026-04-29 19:34 42.91783 25.17887 26131 ft 431 kts 262°
2026-04-29 19:34 42.91248 25.13857 26120 ft 432 kts 262°
2026-04-29 19:34 42.90711 25.09834 26129 ft 432 kts 262°
2026-04-29 19:34 42.90172 25.05797 26133 ft 433 kts 262°
2026-04-29 19:35 42.89630 25.01758 26131 ft 433 kts 262°
2026-04-29 19:35 42.89089 24.97735 26133 ft 433 kts 262°
2026-04-29 19:35 42.88543 24.93689 26130 ft 433 kts 262°
2026-04-29 19:35 42.88002 24.89689 25949 ft 428 kts 262°
2026-04-29 19:36 42.87460 24.85691 25613 ft 429 kts 262°
2026-04-29 19:36 42.86918 24.81703 25313 ft 429 kts 262°
2026-04-29 19:36 42.86371 24.77691 24999 ft 429 kts 262°
2026-04-29 19:36 42.85826 24.73700 24687 ft 428 kts 262°
2026-04-29 19:37 42.85280 24.69718 24387 ft 426 kts 261°
2026-04-29 19:37 42.84920 24.67098 24179 ft 425 kts 261°
2026-04-29 19:37 42.84189 24.61790 23752 ft 424 kts 261°
2026-04-29 19:37 42.83643 24.57841 23404 ft 423 kts 261°
2026-04-29 19:38 42.83098 24.53911 23048 ft 422 kts 261°
2026-04-29 19:38 42.82560 24.50044 22696 ft 420 kts 261°
2026-04-29 19:38 42.82015 24.46132 22346 ft 418 kts 261°
2026-04-29 19:38 42.81473 24.42255 22024 ft 416 kts 261°
2026-04-29 19:39 42.80933 24.38401 21680 ft 413 kts 261°
2026-04-29 19:39 42.80394 24.34560 21332 ft 411 kts 261°
2026-04-29 19:39 42.79862 24.30794 21013 ft 409 kts 261°
2026-04-29 19:39 42.79322 24.26962 20680 ft 407 kts 261°
2026-04-29 19:40 42.78791 24.23203 20356 ft 405 kts 261°
2026-04-29 19:40 42.78257 24.19428 20028 ft 404 kts 261°
2026-04-29 19:40 42.77667 24.15713 19732 ft 402 kts 259°
2026-04-29 19:40 42.77000 24.12022 19397 ft 400 kts 258°
2026-04-29 19:41 42.76320 24.08342 19081 ft 401 kts 258°
2026-04-29 19:41 42.75642 24.04667 18760 ft 400 kts 258°
2026-04-29 19:41 42.74981 24.00987 18463 ft 399 kts 260°
2026-04-29 19:41 42.74632 23.97266 18112 ft 395 kts 270°
2026-04-29 19:42 42.74748 23.93545 17764 ft 392 kts 276°
2026-04-29 19:42 42.74822 23.92343 17654 ft 391 kts 276°
2026-04-29 19:42 42.75232 23.86255 17086 ft 388 kts 276°
2026-04-29 19:42 42.75475 23.82583 16737 ft 386 kts 276°
2026-04-29 19:43 42.75710 23.78972 16405 ft 385 kts 276°
2026-04-29 19:43 42.75943 23.75325 16066 ft 383 kts 275°
2026-04-29 19:43 42.76170 23.71728 15747 ft 382 kts 275°
2026-04-29 19:43 42.76396 23.68136 15418 ft 380 kts 275°
2026-04-29 19:44 42.76618 23.64567 15102 ft 379 kts 275°
2026-04-29 19:44 42.76839 23.60995 14789 ft 377 kts 275°
2026-04-29 19:44 42.77058 23.57442 14475 ft 376 kts 275°
2026-04-29 19:44 42.77202 23.55097 14267 ft 375 kts 275°
2026-04-29 19:45 42.77419 23.51560 13953 ft 374 kts 275°
2026-04-29 19:45 42.77632 23.48055 13497 ft 372 kts 274°
2026-04-29 19:45 42.77844 23.44543 12773 ft 370 kts 274°
2026-04-29 19:45 42.78052 23.41069 12273 ft 368 kts 274°
2026-04-29 19:46 42.78259 23.37615 11789 ft 366 kts 274°
2026-04-29 19:46 42.78464 23.34166 11357 ft 364 kts 274°
2026-04-29 19:46 42.78666 23.30742 10909 ft 363 kts 274°
2026-04-29 19:46 42.78868 23.27306 10476 ft 362 kts 274°
2026-04-29 19:47 42.79068 23.23905 10037 ft 360 kts 274°
2026-04-29 19:47 42.79264 23.20506 9569 ft 359 kts 274°
2026-04-29 19:47 42.79458 23.17127 9112 ft 358 kts 274°
2026-04-29 19:47 42.79650 23.13753 8625 ft 358 kts 274°
2026-04-29 19:48 42.79843 23.10363 8168 ft 358 kts 274°
2026-04-29 19:48 42.79968 23.08129 7866 ft 358 kts 274°
2026-04-29 19:48 42.80139 23.03641 7281 ft 359 kts 269°
2026-04-29 19:48 42.79744 23.00250 7019 ft 361 kts 254°
2026-04-29 19:49 42.78655 22.97166 6956 ft 363 kts 236°
2026-04-29 19:49 42.77101 22.94576 6950 ft 343 kts 223°
2026-04-29 19:49 42.75104 22.93127 6947 ft 322 kts 195°
2026-04-29 19:49 42.72961 22.93128 6949 ft 302 kts 165°
2026-04-29 19:50 42.71230 22.94501 6943 ft 281 kts 133°
2026-04-29 19:50 42.70368 22.96735 6931 ft 260 kts 98°
2026-04-29 19:50 42.70517 22.99075 6932 ft 246 kts 73°
2026-04-29 19:50 42.70970 23.01315 6936 ft 246 kts 73°
2026-04-29 19:51 42.71352 23.03595 6939 ft 247 kts 77°
2026-04-29 19:51 42.71579 23.05916 6827 ft 248 kts 84°
2026-04-29 19:51 42.71571 23.08263 6531 ft 247 kts 90°
2026-04-29 19:51 42.71468 23.10590 6161 ft 248 kts 92°
2026-04-29 19:52 42.71357 23.12943 5763 ft 249 kts 91°
2026-04-29 19:52 42.71242 23.15301 5370 ft 249 kts 92°
2026-04-29 19:52 42.71107 23.17612 5030 ft 247 kts 93°
2026-04-29 19:52 42.70966 23.19919 4689 ft 243 kts 94°
2026-04-29 19:53 42.70830 23.22192 4373 ft 239 kts 95°
2026-04-29 19:53 42.70697 23.24415 4039 ft 234 kts 95°
2026-04-29 19:53 42.70566 23.26600 3723 ft 226 kts 95°
2026-04-29 19:53 42.70444 23.28642 3408 ft 200 kts 94°
2026-04-29 19:54 42.70241 23.32017 2928 ft 165 kts 95°
2026-04-29 19:54 42.70150 23.33506 2743 ft 151 kts 94°
2026-04-29 19:54 42.70068 23.34889 2520 ft 141 kts 94°
2026-04-29 19:55 42.69987 23.36168 2329 ft 134 kts 95°
2026-04-29 19:55 42.69906 23.37415 2117 ft 127 kts 93°
2026-04-29 19:55 42.69837 23.38580 1990 ft 124 kts 95°
2026-04-29 19:55 42.69766 23.39734 1825 ft 125 kts 95°
2026-04-29 19:56 42.69697 23.40876 1747 ft 114 kts 95°
2026-04-29 19:56 42.69647 23.41736 1755 ft 56 kts 95°
2026-04-29 19:56 42.69636 23.41929 1748 ft 10 kts 95°
2026-04-29 19:56 42.69624 23.42112 1748 ft 29 kts 95°
2026-04-29 19:57 42.69593 23.42446 1747 ft 41 kts 103°
2026-04-29 19:57 42.69526 23.42654 1750 ft 29 kts 121°
2026-04-29 19:57 42.69416 23.42735 1749 ft 4 kts 225°
2026-04-29 19:57 42.69408 23.42598 1749 ft 26 kts 275°
2026-04-29 19:58 42.69342 23.42426 1753 ft 25 kts 194°
2026-04-29 19:58 42.69226 23.42290 1750 ft 11 kts 251°
2026-04-29 19:58 42.69183 23.42100 1753 ft 28 kts 253°
2026-04-29 19:58 42.69123 23.41826 1751 ft 16 kts 253°
2026-04-29 19:59 42.69092 23.41664 1747 ft 20 kts 269°
2026-04-29 19:59 42.69093 23.41513 1746 ft 12 kts 252°
2026-04-29 19:59 42.69084 23.41478 1729 ft 0 kts 251°